Date String (YYYY-MM-DD hh:mm:ss) UTC,Instrument flags,absolute air pressure of the measurement (hPa),sample flow rate (lpm),inlet stack bypass flow (lpm),air temperature of the measurement (°C),ambient temperature measured by the external sensor (°C),aerosol sample conditioner tube jacket temperature (°C),OPC LED temperature (°C),internal box temperature (°C),relative humidity of the measurement (%),span deviation,mass concentration of particles derived from Lorenz-Mie calculation of OPC scattering (μg/m³),mass concentration of particles derived from Lorenz-Mie calculation of OPC scattering (μg/m³),mass concentration of particles derived from Lorenz-Mie calculation of OPC scattering (μg/m³)
DateTimeUTC,F1_M11,P_M11,Q1_M11,Q2_M11,T1_M11,T2_M11,T3_M11,T4_M11,T5_M11,U1_M11,ZSPAN_M11,X2_M11,X0_M11,X1_M11
2023-12-02 10:00:00,SystemResetWarning,0819.9,5.00,000.00,018.7,017.8,000.0,027.3,020.0,14.9,0002.3,0023.19,0030.08,0022.31
2023-12-02 10:01:00,SystemResetWarning,0819.7,5.01,000.00,018.7,017.8,000.0,027.3,020.0,14.8,0002.4,0022.98,0029.54,0022.11
2023-12-02 10:02:00,SystemResetWarning,0819.9,5.00,000.00,018.7,017.8,000.0,027.3,020.0,14.8,0002.8,0022.65,0028.65,0021.76
2023-12-02 10:03:00,SystemResetWarning,0820.1,5.00,000.00,018.7,017.8,000.0,027.3,020.0,14.8,0003.0,0022.21,0028.68,0021.34
2023-12-02 10:04:00,SystemResetWarning,0820.0,5.00,000.00,018.7,017.8,000.0,027.2,020.0,14.8,0002.6,0021.76,0028.36,0020.91
2023-12-02 10:05:00,SystemResetWarning,0819.9,5.00,000.00,018.7,017.8,000.0,027.2,020.0,14.7,0002.3,0021.15,0027.70,0020.32
2023-12-02 10:06:00,SystemResetWarning,0819.7,5.00,000.00,018.7,017.8,000.0,027.2,020.0,14.5,0002.5,0020.55,0027.50,0019.71
2023-12-02 10:07:00,SystemResetWarning,0820.1,4.99,000.00,018.7,017.7,000.0,027.2,020.0,14.4,0002.0,0019.89,0027.46,0019.06
2023-12-02 10:08:00,SystemResetWarning,0819.9,5.00,000.00,018.7,017.7,000.0,027.2,020.0,14.4,0002.0,0019.14,0026.94,0018.32
2023-12-02 10:09:00,SystemResetWarning,0819.7,4.99,000.00,018.7,017.7,000.0,027.2,020.0,14.1,0002.2,0018.40,0026.59,0017.61
2023-12-02 10:10:00,SystemResetWarning,0819.8,5.00,000.00,018.7,017.7,000.0,027.3,020.0,13.9,0002.1,0017.74,0025.88,0016.99
2023-12-02 10:11:00,SystemResetWarning,0819.8,5.00,000.00,018.7,017.7,000.0,027.3,020.0,13.8,0002.0,0017.22,0025.00,0016.48
2023-12-02 10:12:00,SystemResetWarning,0819.8,5.00,000.00,018.7,017.7,000.0,027.3,020.0,13.7,0002.3,0016.67,0024.39,0015.91
2023-12-02 10:13:00,SystemResetWarning,0819.8,5.00,000.00,018.7,017.6,000.0,027.3,020.0,13.5,0001.9,0016.16,0023.83,0015.42
2023-12-02 10:14:00,SystemResetWarning,0820.0,5.00,000.00,018.7,017.6,000.0,027.3,020.0,13.4,0001.8,0015.79,0022.90,0015.07
2023-12-02 10:15:00,SystemResetWarning,0820.0,5.00,000.00,018.7,017.6,000.0,027.3,020.0,13.3,0002.5,0015.41,0022.29,0014.72
2023-12-02 10:16:00,SystemResetWarning,0819.8,5.00,000.00,018.7,017.6,000.0,027.3,020.0,12.9,0002.9,0015.02,0021.76,0014.33
2023-12-02 10:17:00,SystemResetWarning,0820.1,5.00,000.00,018.7,017.6,000.0,027.3,020.0,12.6,0003.2,0014.59,0020.82,0013.92
2023-12-02 10:18:00,SystemResetWarning,0820.0,5.00,000.00,018.7,017.6,000.0,027.3,020.0,12.4,0003.4,0014.18,0019.72,0013.52
2023-12-02 10:19:00,SystemResetWarning,0819.9,5.00,000.00,018.7,017.6,000.0,027.3,020.0,12.3,0003.2,0013.76,0018.57,0013.14
2023-12-02 10:20:00,SystemResetWarning,0820.1,5.00,000.00,018.7,017.5,000.0,027.3,020.0,12.3,0003.4,0013.23,0017.50,0012.64
2023-12-02 10:21:00,SystemResetWarning,0820.0,5.00,000.00,018.7,017.5,000.0,027.3,020.0,12.2,0003.4,0012.67,0016.56,0012.08
2023-12-02 10:22:00,SystemResetWarning,0820.0,5.00,000.00,018.7,017.5,000.0,027.3,020.0,12.2,0003.5,0012.09,0015.79,0011.54
2023-12-02 10:23:00,SystemResetWarning,0820.0,5.01,000.00,018.7,017.5,000.0,027.3,020.0,12.3,0003.4,0011.45,0015.05,0010.94
2023-12-02 10:24:00,SystemResetWarning,0820.1,5.00,000.00,018.7,017.5,000.0,027.3,020.0,12.4,0003.5,0010.88,0014.26,0010.39
2023-12-02 10:25:00,SystemResetWarning,0819.9,5.00,000.00,018.7,017.5,000.0,027.3,020.0,12.5,0003.8,0010.33,0013.62,0009.83
2023-12-02 10:26:00,SystemResetWarning,0820.1,5.00,000.00,018.7,017.6,000.0,027.3,020.0,12.6,0003.7,0009.72,0012.98,0009.22
2023-12-02 10:27:00,SystemResetWarning,0820.0,5.01,000.00,018.7,017.6,000.0,027.3,020.0,12.7,0003.1,0009.21,0012.53,0008.72
2023-12-02 10:28:00,SystemResetWarning,0820.0,5.00,000.00,018.7,017.6,000.0,027.3,020.0,12.3,0000.0,0008.71,0012.04,0008.26
2023-12-02 10:29:00,SystemResetWarning,0820.0,5.00,000.00,018.7,017.6,000.0,027.2,020.0,12.7,0000.0,0008.26,0011.61,0007.83
2023-12-02 10:30:00,SystemResetWarning,0819.9,5.00,000.00,018.7,017.6,000.0,027.2,020.0,13.4,0000.0,0007.84,0011.18,0007.40
2023-12-02 10:31:00,SystemResetWarning,0819.7,4.99,000.00,018.7,017.6,000.0,027.2,020.1,13.6,0000.0,0007.50,0010.76,0007.09
2023-12-02 10:32:00,SystemResetWarning,0819.8,5.00,000.00,018.8,017.9,000.0,027.2,020.5,13.6,0000.0,0007.16,0010.41,0006.76
2023-12-02 10:33:00,SystemResetWarning,0820.0,4.99,000.00,018.9,018.6,000.0,027.2,020.9,13.7,0000.0,0006.86,0010.10,0006.48
2023-12-02 10:34:00,SystemResetWarning,0820.3,4.99,000.00,019.0,018.7,000.0,027.2,020.5,14.6,0000.0,0006.68,0009.86,0006.32
2023-12-02 10:35:00,SystemResetWarning,0819.8,5.02,000.00,018.9,018.5,000.0,027.2,020.2,15.0,0000.0,0006.52,0009.59,0006.18
2023-12-02 10:36:00,SystemResetWarning,0819.9,4.99,000.00,018.9,018.4,000.0,027.2,020.1,15.2,0000.0,0006.55,0009.61,0006.21
2023-12-02 10:37:00,SystemResetWarning,0820.0,4.99,000.00,018.9,018.3,000.0,027.2,020.0,15.3,0000.0,0006.98,0010.06,0006.59
2023-12-02 10:38:00,SystemResetWarning,0820.2,5.00,000.00,018.8,018.2,000.0,027.2,020.0,15.3,0000.0,0007.42,0010.46,0007.01
2023-12-02 10:39:00,SystemResetWarning,0820.2,5.01,000.00,018.8,018.1,000.0,027.2,020.0,15.3,0000.0,0007.95,0011.01,0007.51
2023-12-02 10:40:00,SystemResetWarning,0820.3,5.00,000.00,018.8,018.0,000.0,027.2,020.0,15.2,0000.0,0008.67,0011.67,0008.20
2023-12-02 10:41:00,SystemResetWarning,0820.4,5.00,000.00,018.8,018.0,000.0,027.2,020.0,15.2,0002.1,0009.89,0013.32,0009.41
2023-12-02 10:42:00,SystemResetWarning,0820.3,5.00,000.00,018.8,018.0,000.0,027.2,020.0,15.2,0002.2,0011.23,0015.14,0010.70
2023-12-02 10:43:00,SystemResetWarning,0820.5,5.00,000.00,018.8,017.9,000.0,027.2,020.0,15.2,0001.8,0012.60,0017.12,0011.99
2023-12-02 10:44:00,SystemResetWarning,0820.9,5.00,000.00,018.8,017.9,000.0,027.2,020.0,15.2,0002.3,0013.97,0019.30,0013.29
2023-12-02 10:45:00,SystemResetWarning,0820.8,4.99,000.00,018.8,017.8,000.0,027.2,020.0,15.1,0002.2,0015.32,0021.23,0014.60
2023-12-02 10:46:00,SystemResetWarning,0820.7,5.00,000.00,018.7,017.8,000.0,027.2,020.0,14.9,0002.4,0016.63,0022.92,0015.88
2023-12-02 10:47:00,SystemResetWarning,0820.7,5.00,000.00,018.7,017.8,000.0,027.2,020.0,14.8,0002.2,0017.80,0024.21,0017.01
2023-12-02 10:48:00,SystemResetWarning,0820.6,5.00,000.00,018.7,017.8,000.0,027.2,020.0,14.8,0002.1,0018.60,0025.22,0017.79
2023-12-02 10:49:00,SystemResetWarning,0820.7,4.99,000.00,018.7,017.8,000.0,027.2,020.0,14.8,0002.3,0019.26,0027.20,0018.41
2023-12-02 10:50:00,SystemResetWarning,0821.0,5.00,000.00,018.7,017.8,000.0,027.2,020.0,15.0,0002.5,0019.85,0028.33,0018.94
2023-12-02 10:51:00,SystemResetWarning,0820.8,5.00,000.00,018.7,017.8,000.0,027.2,020.0,15.0,0002.4,0020.21,0029.04,0019.27
2023-12-02 10:52:00,SystemResetWarning,0820.6,5.00,000.00,018.7,017.8,000.0,027.2,020.0,15.1,0002.3,0019.88,0028.59,0018.91
2023-12-02 10:53:00,SystemResetWarning,0820.3,5.00,000.00,018.7,017.8,000.0,027.2,020.0,15.1,0002.2,0019.25,0027.92,0018.27
2023-12-02 10:54:00,SystemResetWarning,0820.3,5.00,000.00,018.7,017.8,000.0,027.2,020.0,15.1,0002.3,0018.60,0027.28,0017.64
2023-12-02 10:55:00,SystemResetWarning,0820.3,5.00,000.00,018.8,017.8,000.0,027.2,020.0,15.1,0002.0,0017.99,0026.18,0017.08
2023-12-02 10:56:00,SystemResetWarning,0820.3,5.01,000.00,018.8,017.8,000.0,027.2,020.0,15.1,0002.2,0017.37,0025.22,0016.46
2023-12-02 10:57:00,SystemResetWarning,0820.3,5.00,000.00,018.8,017.8,000.0,027.2,020.0,15.2,0002.0,0016.84,0024.30,0015.92
2023-12-02 10:58:00,SystemResetWarning,0820.7,5.00,000.00,018.8,017.8,000.0,027.2,020.0,15.1,0002.0,0016.42,0023.74,0015.49
2023-12-02 10:59:00,SystemResetWarning,0820.8,4.99,000.00,018.8,017.7,000.0,027.2,020.0,15.1,0002.2,0015.99,0023.27,0015.09
